Time,TemperatureF,DewpointF,PressureIn,WindDirection,WindDirectionDegrees,WindSpeedMPH,WindSpeedGustMPH,Humidity,HourlyPrecipIn,Conditions,Clouds,dailyrainin,SoftwareType,DateUTC
2013-01-27 00:02:00,43.1,42.3,30.00,SW,220,4.0,6.0,97,0.04,,,0.00,WUHU216DAVISVP2,2013-01-27 07:02:00,
2013-01-27 00:07:00,43.1,42.3,30.00,SW,223,6.0,7.0,97,0.04,,,0.00,WUHU216DAVISVP2,2013-01-27 07:07:00,
2013-01-27 00:13:00,43.2,42.4,30.00,SW,225,6.0,9.0,97,0.03,,,0.00,WUHU216DAVISVP2,2013-01-27 07:13:00,
2013-01-27 00:18:00,43.3,42.2,30.00,SW,234,4.0,9.0,96,0.03,,,0.00,WUHU216DAVISVP2,2013-01-27 07:18:00,
2013-01-27 00:23:00,43.3,42.2,30.00,WSW,254,4.0,8.0,96,0.03,,,0.00,WUHU216DAVISVP2,2013-01-27 07:23:00,
2013-01-27 00:28:00,43.4,42.0,30.00,SSW,213,6.0,13.0,95,0.03,,,0.00,WUHU216DAVISVP2,2013-01-27 07:28:00,
2013-01-27 00:33:00,43.4,42.0,30.00,SW,227,5.0,13.0,95,0.03,,,0.00,WUHU216DAVISVP2,2013-01-27 07:33:00,
2013-01-27 00:38:00,43.3,41.9,30.01,SW,229,2.0,11.0,95,0.04,,,0.01,WUHU216DAVISVP2,2013-01-27 07:38:00,
2013-01-27 00:43:00,43.2,42.1,30.01,SSW,202,2.0,6.0,96,0.04,,,0.01,WUHU216DAVISVP2,2013-01-27 07:43:00,
2013-01-27 00:48:00,43.2,42.1,30.01,SSW,212,0.0,5.0,96,0.03,,,0.01,WUHU216DAVISVP2,2013-01-27 07:48:00,
2013-01-27 00:53:00,43.1,42.0,30.01,SSW,205,1.0,3.0,96,0.01,,,0.01,WUHU216DAVISVP2,2013-01-27 07:53:00,
2013-01-27 00:58:00,42.9,41.8,30.00,SSW,207,1.0,3.0,96,0.03,,,0.03,WUHU216DAVISVP2,2013-01-27 07:58:00,
2013-01-27 01:03:00,42.8,41.7,30.00,SSW,211,0.0,3.0,96,0.03,,,0.03,WUHU216DAVISVP2,2013-01-27 08:03:00,
2013-01-27 01:08:00,42.8,42.0,30.00,SW,233,1.0,7.0,97,0.03,,,0.03,WUHU216DAVISVP2,2013-01-27 08:08:00,
2013-01-27 01:13:00,42.8,42.0,30.00,SW,218,2.0,7.0,97,0.03,,,0.03,WUHU216DAVISVP2,2013-01-27 08:13:00,
2013-01-27 01:18:00,42.8,42.0,30.00,SW,214,3.0,6.0,97,0.03,,,0.03,WUHU216DAVISVP2,2013-01-27 08:18:00,
2013-01-27 01:23:00,42.9,41.8,30.00,SW,222,4.0,6.0,96,0.03,,,0.03,WUHU216DAVISVP2,2013-01-27 08:23:00,
2013-01-27 01:28:00,42.9,41.8,30.00,SW,234,2.0,5.0,96,0.04,,,0.04,WUHU216DAVISVP2,2013-01-27 08:28:00,
2013-01-27 01:33:00,42.8,41.7,30.00,SW,227,4.0,5.0,96,0.04,,,0.04,WUHU216DAVISVP2,2013-01-27 08:33:00,
2013-01-27 01:38:00,42.8,41.7,30.00,SW,225,3.0,5.0,96,0.04,,,0.05,WUHU216DAVISVP2,2013-01-27 08:38:00,
2013-01-27 01:43:00,42.8,41.7,30.00,SSW,209,0.0,4.0,96,0.04,,,0.05,WUHU216DAVISVP2,2013-01-27 08:43:00,
2013-01-27 01:48:00,42.8,42.0,30.00,SW,236,1.0,3.0,97,0.04,,,0.05,WUHU216DAVISVP2,2013-01-27 08:48:00,
2013-01-27 01:53:00,42.8,42.0,30.00,SW,224,1.0,3.0,97,0.05,,,0.06,WUHU216DAVISVP2,2013-01-27 08:53:00,
2013-01-27 01:58:00,42.8,42.0,30.01,SSW,212,2.0,3.0,97,0.03,,,0.06,WUHU216DAVISVP2,2013-01-27 08:58:00,
2013-01-27 02:03:00,42.7,41.9,30.00,SSW,210,1.0,5.0,97,0.04,,,0.07,WUHU216DAVISVP2,2013-01-27 09:03:00,
2013-01-27 02:08:00,42.7,41.9,30.00,SSW,213,6.0,6.0,97,0.04,,,0.07,WUHU216DAVISVP2,2013-01-27 09:08:00,
2013-01-27 02:13:00,42.7,41.9,30.00,SSW,202,2.0,6.0,97,0.05,,,0.08,WUHU216DAVISVP2,2013-01-27 09:13:00,
2013-01-27 02:18:00,42.7,41.9,30.00,SSW,207,4.0,5.0,97,0.05,,,0.08,WUHU216DAVISVP2,2013-01-27 09:18:00,
2013-01-27 02:23:00,42.7,41.9,30.00,SW,220,5.0,6.0,97,0.05,,,0.08,WUHU216DAVISVP2,2013-01-27 09:23:00,
2013-01-27 02:28:00,42.8,42.0,30.00,SW,218,4.0,7.0,97,0.04,,,0.08,WUHU216DAVISVP2,2013-01-27 09:28:00,
2013-01-27 02:33:00,42.9,41.8,30.00,SW,227,4.0,7.0,96,0.04,,,0.08,WUHU216DAVISVP2,2013-01-27 09:33:00,
2013-01-27 02:38:00,42.9,41.8,30.00,SW,215,4.0,7.0,96,0.03,,,0.08,WUHU216DAVISVP2,2013-01-27 09:38:00,
2013-01-27 02:43:00,42.9,41.8,30.00,SW,236,3.0,5.0,96,0.03,,,0.08,WUHU216DAVISVP2,2013-01-27 09:43:00,
2013-01-27 02:48:00,42.8,41.7,30.00,SW,227,3.0,6.0,96,0.03,,,0.08,WUHU216DAVISVP2,2013-01-27 09:48:00,
2013-01-27 02:53:00,42.8,41.7,30.00,SW,221,3.0,6.0,96,0.02,,,0.08,WUHU216DAVISVP2,2013-01-27 09:53:00,
2013-01-27 02:58:00,42.8,41.7,30.00,WSW,240,4.0,6.0,96,0.01,,,0.08,WUHU216DAVISVP2,2013-01-27 09:58:00,
2013-01-27 03:03:00,42.8,41.7,30.00,SW,230,3.0,7.0,96,0.01,,,0.08,WUHU216DAVISVP2,2013-01-27 10:03:00,
2013-01-27 03:08:00,42.8,41.7,30.00,SSW,212,3.0,7.0,96,0.01,,,0.08,WUHU216DAVISVP2,2013-01-27 10:08:00,
2013-01-27 03:13:00,42.8,41.7,30.00,SW,227,2.0,5.0,96,0.00,,,0.08,WUHU216DAVISVP2,2013-01-27 10:13:00,
2013-01-27 03:18:00,42.7,41.6,30.00,SW,231,2.0,3.0,96,0.00,,,0.08,WUHU216DAVISVP2,2013-01-27 10:18:00,
2013-01-27 03:23:00,42.6,41.5,30.00,WSW,243,2.0,4.0,96,0.00,,,0.08,WUHU216DAVISVP2,2013-01-27 10:23:00,
2013-01-27 03:28:00,42.7,41.6,30.00,SW,225,2.0,7.0,96,0.00,,,0.08,WUHU216DAVISVP2,2013-01-27 10:28:00,
2013-01-27 03:33:00,42.6,41.5,30.00,SW,232,2.0,7.0,96,0.00,,,0.08,WUHU216DAVISVP2,2013-01-27 10:33:00,
2013-01-27 03:38:00,42.6,41.5,30.00,SSW,201,1.0,4.0,96,0.00,,,0.08,WUHU216DAVISVP2,2013-01-27 10:38:00,
2013-01-27 03:43:00,42.6,41.5,30.01,South,187,2.0,4.0,96,0.00,,,0.08,WUHU216DAVISVP2,2013-01-27 10:43:00,
2013-01-27 03:48:00,42.6,41.5,30.00,South,184,0.0,4.0,96,0.00,,,0.08,WUHU216DAVISVP2,2013-01-27 10:48:00,
2013-01-27 03:53:00,42.5,41.4,30.01,SW,216,2.0,5.0,96,0.00,,,0.08,WUHU216DAVISVP2,2013-01-27 10:53:00,
2013-01-27 03:58:00,42.5,41.4,30.00,South,190,1.0,5.0,96,0.00,,,0.08,WUHU216DAVISVP2,2013-01-27 10:58:00,
2013-01-27 04:03:00,42.4,41.3,30.00,SW,217,3.0,6.0,96,0.00,,,0.08,WUHU216DAVISVP2,2013-01-27 11:03:00,
2013-01-27 04:08:00,42.4,41.3,30.00,SSW,209,2.0,6.0,96,0.00,,,0.08,WUHU216DAVISVP2,2013-01-27 11:08:00,
2013-01-27 04:13:00,42.3,41.2,30.00,SW,214,2.0,6.0,96,0.00,,,0.08,WUHU216DAVISVP2,2013-01-27 11:13:00,
2013-01-27 04:18:00,42.2,41.1,30.00,SW,218,3.0,5.0,96,0.00,,,0.08,WUHU216DAVISVP2,2013-01-27 11:18:00,
2013-01-27 04:23:00,42.0,40.9,30.00,SSW,199,0.0,5.0,96,0.00,,,0.08,WUHU216DAVISVP2,2013-01-27 11:23:00,
2013-01-27 04:28:00,41.9,40.8,30.00,SSW,211,0.0,4.0,96,0.00,,,0.08,WUHU216DAVISVP2,2013-01-27 11:28:00,
2013-01-27 04:33:00,41.8,40.7,30.00,SSW,205,2.0,3.0,96,0.00,,,0.08,WUHU216DAVISVP2,2013-01-27 11:33:00,
2013-01-27 04:38:00,41.7,40.6,30.00,SSW,212,3.0,5.0,96,0.00,,,0.08,WUHU216DAVISVP2,2013-01-27 11:38:00,
2013-01-27 04:43:00,41.7,40.9,30.00,SW,217,0.0,5.0,97,0.00,,,0.08,WUHU216DAVISVP2,2013-01-27 11:43:00,
2013-01-27 04:48:00,41.8,41.0,30.00,SSW,208,1.0,5.0,97,0.00,,,0.08,WUHU216DAVISVP2,2013-01-27 11:48:00,
2013-01-27 04:53:00,41.8,41.0,30.00,SSW,204,2.0,4.0,97,0.00,,,0.08,WUHU216DAVISVP2,2013-01-27 11:53:00,
2013-01-27 04:58:00,42.0,41.2,30.00,SW,226,1.0,7.0,97,0.00,,,0.08,WUHU216DAVISVP2,2013-01-27 11:58:00,
2013-01-27 05:03:00,42.1,41.3,30.00,SSW,196,2.0,7.0,97,0.00,,,0.08,WUHU216DAVISVP2,2013-01-27 12:03:00,
2013-01-27 05:08:00,42.3,41.5,30.00,SW,221,7.0,8.0,97,0.00,,,0.08,WUHU216DAVISVP2,2013-01-27 12:08:00,
2013-01-27 05:13:00,42.5,41.7,30.00,SW,223,6.0,8.0,97,0.00,,,0.08,WUHU216DAVISVP2,2013-01-27 12:13:00,
2013-01-27 05:18:00,42.5,41.7,30.00,SSW,212,2.0,7.0,97,0.01,,,0.09,WUHU216DAVISVP2,2013-01-27 12:18:00,
2013-01-27 05:23:00,42.6,41.8,30.00,SW,219,8.0,8.0,97,0.01,,,0.09,WUHU216DAVISVP2,2013-01-27 12:23:00,
2013-01-27 05:28:00,42.6,41.8,30.00,SSW,204,7.0,8.0,97,0.01,,,0.09,WUHU216DAVISVP2,2013-01-27 12:28:00,
2013-01-27 05:33:00,42.6,41.8,29.99,SW,215,2.0,9.0,97,0.01,,,0.09,WUHU216DAVISVP2,2013-01-27 12:33:00,
2013-01-27 05:38:00,42.6,42.1,29.99,SW,218,2.0,9.0,98,0.02,,,0.10,WUHU216DAVISVP2,2013-01-27 12:38:00,
2013-01-27 05:43:00,42.6,42.1,29.99,SW,214,2.0,5.0,98,0.02,,,0.10,WUHU216DAVISVP2,2013-01-27 12:43:00,
2013-01-27 05:48:00,42.6,42.1,29.99,South,182,4.0,7.0,98,0.03,,,0.11,WUHU216DAVISVP2,2013-01-27 12:48:00,
2013-01-27 05:53:00,42.6,42.1,29.99,South,169,4.0,7.0,98,0.03,,,0.11,WUHU216DAVISVP2,2013-01-27 12:53:00,
2013-01-27 05:58:00,42.6,42.1,29.99,SSW,205,5.0,6.0,98,0.03,,,0.11,WUHU216DAVISVP2,2013-01-27 12:58:00,
2013-01-27 06:03:00,42.6,41.8,29.99,South,171,3.0,8.0,97,0.04,,,0.12,WUHU216DAVISVP2,2013-01-27 13:03:00,
2013-01-27 06:08:00,42.6,41.8,29.99,SSW,211,3.0,8.0,97,0.05,,,0.13,WUHU216DAVISVP2,2013-01-27 13:08:00,
2013-01-27 06:13:00,42.6,41.8,29.99,SW,220,2.0,6.0,97,0.05,,,0.13,WUHU216DAVISVP2,2013-01-27 13:13:00,
2013-01-27 06:18:00,42.6,41.8,29.99,SW,225,1.0,5.0,97,0.04,,,0.13,WUHU216DAVISVP2,2013-01-27 13:18:00,
2013-01-27 06:23:00,42.6,41.8,29.99,South,184,5.0,7.0,97,0.05,,,0.14,WUHU216DAVISVP2,2013-01-27 13:23:00,
2013-01-27 06:28:00,42.6,41.8,29.99,SW,228,4.0,7.0,97,0.05,,,0.14,WUHU216DAVISVP2,2013-01-27 13:28:00,
2013-01-27 06:33:00,42.6,41.8,29.99,SSW,211,7.0,7.0,97,0.06,,,0.15,WUHU216DAVISVP2,2013-01-27 13:33:00,
2013-01-27 06:38:00,42.6,41.8,29.99,SW,228,4.0,7.0,97,0.05,,,0.15,WUHU216DAVISVP2,2013-01-27 13:38:00,
2013-01-27 06:43:00,42.6,41.8,30.00,SSW,211,3.0,7.0,97,0.05,,,0.15,WUHU216DAVISVP2,2013-01-27 13:43:00,
2013-01-27 06:48:00,42.6,41.8,30.00,SW,230,4.0,7.0,97,0.04,,,0.15,WUHU216DAVISVP2,2013-01-27 13:48:00,
2013-01-27 06:53:00,42.6,41.8,30.00,SSW,213,5.0,8.0,97,0.04,,,0.15,WUHU216DAVISVP2,2013-01-27 13:53:00,
2013-01-27 06:58:00,42.5,41.7,30.00,SW,224,6.0,9.0,97,0.04,,,0.15,WUHU216DAVISVP2,2013-01-27 13:58:00,
2013-01-27 07:03:00,42.5,41.7,30.00,SSW,204,7.0,10.0,97,0.03,,,0.15,WUHU216DAVISVP2,2013-01-27 14:03:00,
2013-01-27 07:08:00,42.7,41.6,30.00,SSW,197,4.0,10.0,96,0.02,,,0.15,WUHU216DAVISVP2,2013-01-27 14:08:00,
2013-01-27 07:13:00,42.7,41.3,30.00,SW,225,5.0,14.0,95,0.03,,,0.16,WUHU216DAVISVP2,2013-01-27 14:13:00,
2013-01-27 07:18:00,42.5,41.1,30.00,SSW,192,6.0,14.0,95,0.03,,,0.16,WUHU216DAVISVP2,2013-01-27 14:18:00,
2013-01-27 07:23:00,42.4,41.0,30.00,SW,229,5.0,11.0,95,0.02,,,0.16,WUHU216DAVISVP2,2013-01-27 14:23:00,
2013-01-27 07:28:00,42.4,41.0,30.00,SW,227,7.0,11.0,95,0.02,,,0.16,WUHU216DAVISVP2,2013-01-27 14:28:00,
2013-01-27 07:33:00,42.4,41.0,30.00,SSW,210,4.0,11.0,95,0.01,,,0.16,WUHU216DAVISVP2,2013-01-27 14:33:00,
2013-01-27 07:38:00,42.6,41.2,30.00,SW,221,8.0,16.0,95,0.01,,,0.16,WUHU216DAVISVP2,2013-01-27 14:38:00,
2013-01-27 07:43:00,42.6,41.2,30.00,South,189,7.0,16.0,95,0.01,,,0.16,WUHU216DAVISVP2,2013-01-27 14:43:00,
2013-01-27 07:48:00,42.5,41.1,30.00,SW,236,8.0,10.0,95,0.01,,,0.16,WUHU216DAVISVP2,2013-01-27 14:48:00,
2013-01-27 07:53:00,42.7,41.4,30.00,SSW,205,8.0,14.0,95,0.01,,,0.16,WUHU216DAVISVP2,2013-01-27 14:53:00,
2013-01-27 07:58:00,42.8,41.4,30.00,SW,232,4.0,14.0,95,0.02,,,0.17,WUHU216DAVISVP2,2013-01-27 14:58:00,
2013-01-27 08:03:00,42.9,41.5,30.01,SW,231,6.0,13.0,95,0.02,,,0.17,WUHU216DAVISVP2,2013-01-27 15:03:00,
2013-01-27 08:08:00,42.8,41.7,30.00,SW,227,10.0,10.0,96,0.02,,,0.17,WUHU216DAVISVP2,2013-01-27 15:08:00,
2013-01-27 08:13:00,42.8,41.4,30.01,SW,225,4.0,11.0,95,0.01,,,0.17,WUHU216DAVISVP2,2013-01-27 15:13:00,
2013-01-27 08:18:00,42.8,41.4,30.01,SW,231,7.0,11.0,95,0.01,,,0.17,WUHU216DAVISVP2,2013-01-27 15:18:00,
2013-01-27 08:23:00,42.9,41.2,30.01,SW,216,9.0,12.0,94,0.01,,,0.17,WUHU216DAVISVP2,2013-01-27 15:23:00,
2013-01-27 08:28:00,43.0,41.7,30.01,SSW,201,8.0,16.0,95,0.01,,,0.17,WUHU216DAVISVP2,2013-01-27 15:28:00,
2013-01-27 08:33:00,43.0,41.7,30.01,SW,217,14.0,16.0,95,0.02,,,0.18,WUHU216DAVISVP2,2013-01-27 15:33:00,
2013-01-27 08:38:00,43.0,41.6,30.01,SW,236,7.0,16.0,95,0.02,,,0.18,WUHU216DAVISVP2,2013-01-27 15:38:00,
2013-01-27 08:43:00,43.0,41.4,30.01,SW,236,11.0,16.0,94,0.02,,,0.18,WUHU216DAVISVP2,2013-01-27 15:43:00,
2013-01-27 08:48:00,43.0,41.4,30.01,SW,231,11.0,15.0,94,0.02,,,0.18,WUHU216DAVISVP2,2013-01-27 15:48:00,
2013-01-27 08:53:00,43.2,41.3,30.01,SSW,200,7.0,17.0,93,0.02,,,0.18,WUHU216DAVISVP2,2013-01-27 15:53:00,
2013-01-27 08:58:00,43.2,41.5,30.01,SW,223,10.0,17.0,94,0.01,,,0.18,WUHU216DAVISVP2,2013-01-27 15:58:00,
2013-01-27 09:03:00,43.2,41.3,30.01,SW,218,15.0,15.0,93,0.01,,,0.18,WUHU216DAVISVP2,2013-01-27 16:03:00,
2013-01-27 09:08:00,43.3,41.1,30.02,WSW,243,7.0,15.0,92,0.01,,,0.18,WUHU216DAVISVP2,2013-01-27 16:08:00,
2013-01-27 09:13:00,43.4,41.5,30.02,SW,221,8.0,16.0,93,0.01,,,0.18,WUHU216DAVISVP2,2013-01-27 16:13:00,
2013-01-27 09:18:00,44.1,41.9,30.02,WSW,242,18.0,18.0,92,0.01,,,0.18,WUHU216DAVISVP2,2013-01-27 16:18:00,
2013-01-27 09:23:00,44.5,42.0,30.02,WSW,239,13.0,18.0,91,0.01,,,0.18,WUHU216DAVISVP2,2013-01-27 16:23:00,
2013-01-27 09:28:00,44.9,42.4,30.02,SW,227,8.0,17.0,91,0.01,,,0.18,WUHU216DAVISVP2,2013-01-27 16:28:00,
2013-01-27 09:33:00,45.0,42.2,30.02,SSW,210,8.0,15.0,90,0.00,,,0.18,WUHU216DAVISVP2,2013-01-27 16:33:00,
2013-01-27 09:38:00,44.7,41.9,30.03,SW,232,8.0,15.0,90,0.00,,,0.18,WUHU216DAVISVP2,2013-01-27 16:38:00,
2013-01-27 09:43:00,44.5,41.7,30.02,SW,234,8.0,13.0,90,0.00,,,0.18,WUHU216DAVISVP2,2013-01-27 16:43:00,
2013-01-27 09:48:00,44.5,41.4,30.02,SW,222,8.0,16.0,89,0.00,,,0.18,WUHU216DAVISVP2,2013-01-27 16:48:00,
2013-01-27 09:53:00,44.5,41.4,30.03,WSW,242,10.0,18.0,89,0.00,,,0.18,WUHU216DAVISVP2,2013-01-27 16:53:00,
2013-01-27 09:58:00,44.4,41.3,30.03,SW,225,8.0,18.0,89,0.00,,,0.18,WUHU216DAVISVP2,2013-01-27 16:58:00,
2013-01-27 10:03:00,44.2,41.4,30.03,SSW,203,6.0,11.0,90,0.00,,,0.18,WUHU216DAVISVP2,2013-01-27 17:03:00,
2013-01-27 10:08:00,44.1,41.6,30.03,SW,224,4.0,9.0,91,0.00,,,0.18,WUHU216DAVISVP2,2013-01-27 17:08:00,
2013-01-27 10:13:00,43.9,41.7,30.03,South,173,8.0,11.0,92,0.00,,,0.18,WUHU216DAVISVP2,2013-01-27 17:13:00,
2013-01-27 10:18:00,43.9,41.7,30.04,SW,224,7.0,11.0,92,0.00,,,0.18,WUHU216DAVISVP2,2013-01-27 17:18:00,
2013-01-27 10:23:00,43.9,41.7,30.04,SW,223,4.0,11.0,92,0.00,,,0.18,WUHU216DAVISVP2,2013-01-27 17:23:00,
2013-01-27 10:28:00,43.9,41.1,30.04,SW,222,7.0,14.0,90,0.00,,,0.18,WUHU216DAVISVP2,2013-01-27 17:28:00,
2013-01-27 10:33:00,44.1,41.9,30.04,SW,234,5.0,14.0,92,0.00,,,0.18,WUHU216DAVISVP2,2013-01-27 17:33:00,
2013-01-27 10:38:00,44.2,41.4,30.04,WSW,237,6.0,9.0,90,0.00,,,0.18,WUHU216DAVISVP2,2013-01-27 17:38:00,
2013-01-27 10:43:00,44.1,41.3,30.04,SW,215,4.0,9.0,90,0.01,,,0.19,WUHU216DAVISVP2,2013-01-27 17:43:00,
2013-01-27 10:48:00,43.8,41.3,30.04,SW,229,4.0,9.0,91,0.01,,,0.19,WUHU216DAVISVP2,2013-01-27 17:48:00,
2013-01-27 10:53:00,43.6,41.4,30.04,WSW,258,6.0,9.0,92,0.01,,,0.19,WUHU216DAVISVP2,2013-01-27 17:53:00,
2013-01-27 10:58:00,43.5,41.6,30.04,SSW,197,7.0,8.0,93,0.02,,,0.20,WUHU216DAVISVP2,2013-01-27 17:58:00,
2013-01-27 11:03:00,43.5,41.6,30.04,WSW,238,3.0,7.0,93,0.02,,,0.20,WUHU216DAVISVP2,2013-01-27 18:03:00,
2013-01-27 11:08:00,43.6,41.7,30.03,SW,227,3.0,8.0,93,0.02,,,0.20,WUHU216DAVISVP2,2013-01-27 18:08:00,
2013-01-27 11:13:00,43.7,42.0,30.03,South,185,3.0,8.0,94,0.02,,,0.20,WUHU216DAVISVP2,2013-01-27 18:13:00,
2013-01-27 11:18:00,43.9,42.2,30.03,SSW,212,4.0,10.0,94,0.03,,,0.21,WUHU216DAVISVP2,2013-01-27 18:18:00,
2013-01-27 11:23:00,44.1,42.4,30.03,SSE,161,5.0,10.0,94,0.03,,,0.21,WUHU216DAVISVP2,2013-01-27 18:23:00,
2013-01-27 11:28:00,44.2,42.3,30.03,SSW,207,3.0,9.0,93,0.03,,,0.21,WUHU216DAVISVP2,2013-01-27 18:28:00,
2013-01-27 11:33:00,44.3,42.4,30.03,South,184,4.0,9.0,93,0.03,,,0.21,WUHU216DAVISVP2,2013-01-27 18:33:00,
2013-01-27 11:38:00,44.6,43.0,30.03,SW,234,5.0,8.0,94,0.03,,,0.21,WUHU216DAVISVP2,2013-01-27 18:38:00,
2013-01-27 11:43:00,45.1,43.2,30.03,SW,217,4.0,7.0,93,0.02,,,0.21,WUHU216DAVISVP2,2013-01-27 18:43:00,
2013-01-27 11:48:00,45.6,42.8,30.03,South,182,6.0,9.0,90,0.02,,,0.21,WUHU216DAVISVP2,2013-01-27 18:48:00,
2013-01-27 11:53:00,45.5,43.0,30.02,South,188,10.0,10.0,91,0.02,,,0.21,WUHU216DAVISVP2,2013-01-27 18:53:00,
2013-01-27 11:58:00,45.4,42.9,30.02,South,178,4.0,10.0,91,0.01,,,0.21,WUHU216DAVISVP2,2013-01-27 18:58:00,
2013-01-27 12:03:00,45.5,43.5,30.02,SW,233,2.0,9.0,93,0.01,,,0.21,WUHU216DAVISVP2,2013-01-27 19:03:00,
2013-01-27 12:08:00,45.5,43.0,30.02,SSW,193,1.0,6.0,91,0.01,,,0.21,WUHU216DAVISVP2,2013-01-27 19:08:00,
2013-01-27 12:13:00,45.6,43.1,30.01,SSW,207,0.0,5.0,91,0.01,,,0.21,WUHU216DAVISVP2,2013-01-27 19:13:00,
2013-01-27 12:18:00,45.6,43.1,30.01,SE,139,1.0,6.0,91,0.00,,,0.21,WUHU216DAVISVP2,2013-01-27 19:18:00,
2013-01-27 12:23:00,45.5,42.7,30.01,SSE,157,4.0,6.0,90,0.00,,,0.21,WUHU216DAVISVP2,2013-01-27 19:23:00,
2013-01-27 12:28:00,45.4,42.9,30.01,South,173,1.0,8.0,91,0.00,,,0.21,WUHU216DAVISVP2,2013-01-27 19:28:00,
2013-01-27 12:33:00,45.3,43.1,30.00,SSW,194,2.0,8.0,92,0.00,,,0.21,WUHU216DAVISVP2,2013-01-27 19:33:00,
2013-01-27 12:38:00,45.2,42.7,30.00,SW,225,2.0,7.0,91,0.00,,,0.21,WUHU216DAVISVP2,2013-01-27 19:38:00,
2013-01-27 12:43:00,45.2,43.0,30.00,South,188,2.0,7.0,92,0.00,,,0.21,WUHU216DAVISVP2,2013-01-27 19:43:00,
2013-01-27 12:48:00,45.0,42.8,30.00,SW,226,1.0,7.0,92,0.01,,,0.22,WUHU216DAVISVP2,2013-01-27 19:48:00,
2013-01-27 12:53:00,45.0,43.1,29.99,South,190,5.0,7.0,93,0.02,,,0.23,WUHU216DAVISVP2,2013-01-27 19:53:00,
2013-01-27 12:58:00,44.8,43.1,29.99,SE,140,5.0,10.0,94,0.02,,,0.23,WUHU216DAVISVP2,2013-01-27 19:58:00,
2013-01-27 13:03:00,44.5,42.8,29.99,South,179,2.0,10.0,94,0.04,,,0.25,WUHU216DAVISVP2,2013-01-27 20:03:00,
2013-01-27 13:08:00,44.4,43.0,29.99,SSE,161,7.0,10.0,95,0.05,,,0.26,WUHU216DAVISVP2,2013-01-27 20:08:00,
2013-01-27 13:13:00,44.4,43.0,29.98,South,190,5.0,12.0,95,0.05,,,0.26,WUHU216DAVISVP2,2013-01-27 20:13:00,
2013-01-27 13:18:00,44.3,42.9,29.98,South,189,8.0,12.0,95,0.06,,,0.27,WUHU216DAVISVP2,2013-01-27 20:18:00,
2013-01-27 13:23:00,44.3,42.9,29.98,SSW,210,5.0,14.0,95,0.06,,,0.27,WUHU216DAVISVP2,2013-01-27 20:23:00,
2013-01-27 13:28:00,44.2,42.8,29.98,SSW,196,7.0,15.0,95,0.07,,,0.28,WUHU216DAVISVP2,2013-01-27 20:28:00,
2013-01-27 13:33:00,44.3,43.2,29.98,SW,235,6.0,15.0,96,0.08,,,0.29,WUHU216DAVISVP2,2013-01-27 20:33:00,
2013-01-27 13:38:00,44.3,43.2,29.97,SSW,200,7.0,12.0,96,0.08,,,0.29,WUHU216DAVISVP2,2013-01-27 20:38:00,
2013-01-27 13:43:00,44.5,43.4,29.97,SW,219,2.0,10.0,96,0.08,,,0.29,WUHU216DAVISVP2,2013-01-27 20:43:00,
2013-01-27 13:48:00,44.6,43.2,29.97,South,176,2.0,9.0,95,0.07,,,0.29,WUHU216DAVISVP2,2013-01-27 20:48:00,
2013-01-27 13:53:00,44.6,43.5,29.96,SSW,213,6.0,9.0,96,0.07,,,0.30,WUHU216DAVISVP2,2013-01-27 20:53:00,
2013-01-27 13:58:00,44.5,43.1,29.96,SSW,210,6.0,10.0,95,0.07,,,0.30,WUHU216DAVISVP2,2013-01-27 20:58:00,
2013-01-27 14:03:00,44.4,43.3,29.96,SSW,200,6.0,10.0,96,0.08,,,0.33,WUHU216DAVISVP2,2013-01-27 21:03:00,
2013-01-27 14:08:00,44.4,43.3,29.96,SW,214,6.0,11.0,96,0.07,,,0.33,WUHU216DAVISVP2,2013-01-27 21:08:00,
2013-01-27 14:13:00,44.1,43.0,29.96,SW,227,7.0,13.0,96,0.09,,,0.35,WUHU216DAVISVP2,2013-01-27 21:13:00,
2013-01-27 14:18:00,44.0,42.9,29.96,SW,224,7.0,15.0,96,0.10,,,0.37,WUHU216DAVISVP2,2013-01-27 21:18:00,
2013-01-27 14:23:00,44.0,42.9,29.96,SSE,147,2.0,15.0,96,0.11,,,0.38,WUHU216DAVISVP2,2013-01-27 21:23:00,
2013-01-27 14:28:00,44.1,43.0,29.96,SSW,212,6.0,13.0,96,0.10,,,0.38,WUHU216DAVISVP2,2013-01-27 21:28:00,
2013-01-27 14:33:00,44.1,42.7,29.96,SW,230,3.0,13.0,95,0.09,,,0.38,WUHU216DAVISVP2,2013-01-27 21:33:00,
2013-01-27 14:38:00,43.9,42.5,29.96,South,173,4.0,13.0,95,0.10,,,0.39,WUHU216DAVISVP2,2013-01-27 21:38:00,
2013-01-27 14:43:00,43.9,42.5,29.96,SW,224,7.0,14.0,95,0.10,,,0.39,WUHU216DAVISVP2,2013-01-27 21:43:00,
2013-01-27 14:48:00,43.9,42.2,29.95,SW,236,8.0,16.0,94,0.11,,,0.40,WUHU216DAVISVP2,2013-01-27 21:48:00,
2013-01-27 14:53:00,43.7,42.0,29.96,SW,229,5.0,19.0,94,0.10,,,0.40,WUHU216DAVISVP2,2013-01-27 21:53:00,
2013-01-27 14:58:00,43.9,42.2,29.96,SSE,158,8.0,19.0,94,0.11,,,0.41,WUHU216DAVISVP2,2013-01-27 21:58:00,
2013-01-27 15:03:00,44.2,42.5,29.95,SSW,194,4.0,16.0,94,0.08,,,0.41,WUHU216DAVISVP2,2013-01-27 22:03:00,
2013-01-27 15:08:00,44.8,42.9,29.96,SSW,196,10.0,16.0,93,0.08,,,0.41,WUHU216DAVISVP2,2013-01-27 22:08:00,
2013-01-27 15:13:00,45.0,43.1,29.96,South,177,3.0,13.0,93,0.06,,,0.41,WUHU216DAVISVP2,2013-01-27 22:13:00,
2013-01-27 15:18:00,44.9,43.0,29.95,SW,223,10.0,12.0,93,0.04,,,0.41,WUHU216DAVISVP2,2013-01-27 22:18:00,
2013-01-27 15:23:00,45.3,42.8,29.95,SW,223,5.0,16.0,91,0.03,,,0.41,WUHU216DAVISVP2,2013-01-27 22:23:00,
2013-01-27 15:28:00,46.3,43.5,29.95,WSW,244,14.0,16.0,90,0.03,,,0.41,WUHU216DAVISVP2,2013-01-27 22:28:00,
2013-01-27 15:33:00,46.6,43.2,29.95,SSW,197,14.0,14.0,88,0.03,,,0.41,WUHU216DAVISVP2,2013-01-27 22:33:00,
2013-01-27 15:38:00,46.9,43.2,29.95,SW,236,7.0,15.0,87,0.02,,,0.41,WUHU216DAVISVP2,2013-01-27 22:38:00,
2013-01-27 15:43:00,46.5,43.4,29.95,SSE,158,7.0,15.0,89,0.02,,,0.41,WUHU216DAVISVP2,2013-01-27 22:43:00,
2013-01-27 15:48:00,45.8,43.0,29.95,WSW,242,5.0,15.0,90,0.01,,,0.41,WUHU216DAVISVP2,2013-01-27 22:48:00,
2013-01-27 15:53:00,45.4,42.0,29.95,SSW,209,7.0,15.0,88,0.01,,,0.41,WUHU216DAVISVP2,2013-01-27 22:53:00,
2013-01-27 15:58:00,45.1,42.0,29.95,South,189,7.0,17.0,89,0.00,,,0.41,WUHU216DAVISVP2,2013-01-27 22:58:00,
2013-01-27 16:03:00,44.9,41.8,29.95,WSW,242,5.0,17.0,89,0.00,,,0.41,WUHU216DAVISVP2,2013-01-27 23:03:00,
2013-01-27 16:08:00,44.8,42.0,29.95,South,179,13.0,18.0,90,0.00,,,0.41,WUHU216DAVISVP2,2013-01-27 23:08:00,
2013-01-27 16:13:00,44.5,41.7,29.95,SSW,194,8.0,18.0,90,0.00,,,0.41,WUHU216DAVISVP2,2013-01-27 23:13:00,
2013-01-27 16:18:00,44.4,41.3,29.95,SW,231,9.0,16.0,89,0.00,,,0.41,WUHU216DAVISVP2,2013-01-27 23:18:00,
2013-01-27 16:23:00,44.3,41.5,29.94,SW,219,11.0,14.0,90,0.00,,,0.41,WUHU216DAVISVP2,2013-01-27 23:23:00,
2013-01-27 16:28:00,44.5,41.7,29.95,South,185,19.0,19.0,90,0.00,,,0.41,WUHU216DAVISVP2,2013-01-27 23:28:00,
2013-01-27 16:33:00,44.4,41.3,29.95,SSE,155,6.0,19.0,89,0.00,,,0.41,WUHU216DAVISVP2,2013-01-27 23:33:00,
2013-01-27 16:38:00,44.3,41.8,29.95,SSW,192,8.0,17.0,91,0.00,,,0.41,WUHU216DAVISVP2,2013-01-27 23:38:00,
2013-01-27 16:43:00,44.6,41.5,29.95,SW,228,8.0,14.0,89,0.00,,,0.41,WUHU216DAVISVP2,2013-01-27 23:43:00,
2013-01-27 16:48:00,44.9,41.5,29.95,SSE,161,5.0,13.0,88,0.00,,,0.41,WUHU216DAVISVP2,2013-01-27 23:48:00,
2013-01-27 16:53:00,44.7,41.3,29.95,SSW,213,9.0,13.0,88,0.00,,,0.41,WUHU216DAVISVP2,2013-01-27 23:53:00,
2013-01-27 16:58:00,45.1,41.2,29.95,WSW,238,6.0,22.0,86,0.00,,,0.41,WUHU216DAVISVP2,2013-01-27 23:58:00,
2013-01-27 17:03:00,45.0,40.5,29.95,SW,219,10.0,22.0,84,0.00,,,0.41,WUHU216DAVISVP2,2013-01-28 00:03:00,
2013-01-27 17:08:00,44.9,40.7,29.95,SW,219,2.0,15.0,85,0.00,,,0.41,WUHU216DAVISVP2,2013-01-28 00:08:00,
2013-01-27 17:13:00,44.6,40.4,29.95,SSW,211,5.0,10.0,85,0.00,,,0.41,WUHU216DAVISVP2,2013-01-28 00:13:00,
2013-01-27 17:18:00,44.3,40.1,29.95,SSW,202,6.0,10.0,85,0.00,,,0.41,WUHU216DAVISVP2,2013-01-28 00:18:00,
2013-01-27 17:23:00,44.0,39.5,29.95,WSW,243,5.0,10.0,84,0.00,,,0.41,WUHU216DAVISVP2,2013-01-28 00:23:00,
2013-01-27 17:28:00,43.8,38.7,29.95,South,178,8.0,11.0,82,0.00,,,0.41,WUHU216DAVISVP2,2013-01-28 00:28:00,
2013-01-27 17:33:00,43.5,38.1,29.94,SSE,163,4.0,11.0,81,0.00,,,0.41,WUHU216DAVISVP2,2013-01-28 00:33:00,
2013-01-27 17:38:00,43.2,38.1,29.94,SSW,192,4.0,11.0,82,0.00,,,0.41,WUHU216DAVISVP2,2013-01-28 00:38:00,
2013-01-27 17:43:00,42.9,37.8,29.95,SSW,200,2.0,8.0,82,0.00,,,0.41,WUHU216DAVISVP2,2013-01-28 00:43:00,
2013-01-27 17:48:00,42.7,37.9,29.94,South,190,4.0,9.0,83,0.00,,,0.41,WUHU216DAVISVP2,2013-01-28 00:48:00,
2013-01-27 17:53:00,42.5,38.3,29.95,SSW,193,1.0,9.0,85,0.00,,,0.41,WUHU216DAVISVP2,2013-01-28 00:53:00,
2013-01-27 17:58:00,42.3,38.1,29.95,SE,140,4.0,10.0,85,0.00,,,0.41,WUHU216DAVISVP2,2013-01-28 00:58:00,
2013-01-27 18:03:00,42.2,38.3,29.95,South,181,2.0,10.0,86,0.00,,,0.41,WUHU216DAVISVP2,2013-01-28 01:03:00,
2013-01-27 18:08:00,42.0,38.4,29.95,South,188,1.0,6.0,87,0.00,,,0.41,WUHU216DAVISVP2,2013-01-28 01:08:00,
2013-01-27 18:13:00,41.9,38.6,29.95,SSE,158,4.0,6.0,88,0.00,,,0.41,WUHU216DAVISVP2,2013-01-28 01:13:00,
2013-01-27 18:18:00,41.8,38.8,29.95,SSW,196,4.0,6.0,89,0.00,,,0.41,WUHU216DAVISVP2,2013-01-28 01:18:00,
2013-01-27 18:23:00,41.8,38.8,29.95,SSW,212,5.0,8.0,89,0.00,,,0.41,WUHU216DAVISVP2,2013-01-28 01:23:00,
2013-01-27 18:28:00,42.0,38.7,29.96,South,187,9.0,9.0,88,0.00,,,0.41,WUHU216DAVISVP2,2013-01-28 01:28:00,
2013-01-27 18:33:00,42.2,38.9,29.95,South,188,4.0,12.0,88,0.00,,,0.41,WUHU216DAVISVP2,2013-01-28 01:33:00,
2013-01-27 18:38:00,42.3,39.0,29.95,SSW,199,2.0,12.0,88,0.00,,,0.41,WUHU216DAVISVP2,2013-01-28 01:38:00,
2013-01-27 18:43:00,42.5,39.2,29.95,SSW,209,6.0,9.0,88,0.00,,,0.41,WUHU216DAVISVP2,2013-01-28 01:43:00,
2013-01-27 18:48:00,42.6,39.3,29.95,South,179,5.0,8.0,88,0.00,,,0.41,WUHU216DAVISVP2,2013-01-28 01:48:00,
2013-01-27 18:53:00,42.6,39.5,29.95,SW,227,0.0,7.0,89,0.00,,,0.41,WUHU216DAVISVP2,2013-01-28 01:53:00,
2013-01-27 18:58:00,42.5,39.2,29.96,SSW,211,7.0,12.0,88,0.00,,,0.41,WUHU216DAVISVP2,2013-01-28 01:58:00,
2013-01-27 19:03:00,42.6,38.7,29.95,SSW,195,8.0,12.0,86,0.00,,,0.41,WUHU216DAVISVP2,2013-01-28 02:03:00,
2013-01-27 19:08:00,42.6,38.7,29.95,SW,233,5.0,9.0,86,0.00,,,0.41,WUHU216DAVISVP2,2013-01-28 02:08:00,
2013-01-27 19:13:00,42.4,38.5,29.95,SSW,198,8.0,11.0,86,0.00,,,0.41,WUHU216DAVISVP2,2013-01-28 02:13:00,
2013-01-27 19:18:00,42.3,38.7,29.95,SSE,161,2.0,11.0,87,0.00,,,0.41,WUHU216DAVISVP2,2013-01-28 02:18:00,
2013-01-27 19:23:00,42.3,38.7,29.95,SSW,201,10.0,15.0,87,0.00,,,0.41,WUHU216DAVISVP2,2013-01-28 02:23:00,
2013-01-27 19:28:00,42.2,38.9,29.94,WSW,239,9.0,15.0,88,0.00,,,0.41,WUHU216DAVISVP2,2013-01-28 02:28:00,
2013-01-27 19:33:00,42.2,38.6,29.94,SW,227,10.0,18.0,87,0.00,,,0.41,WUHU216DAVISVP2,2013-01-28 02:33:00,
2013-01-27 19:38:00,42.1,38.5,29.94,SSW,212,6.0,18.0,87,0.00,,,0.41,WUHU216DAVISVP2,2013-01-28 02:38:00,
2013-01-27 19:43:00,41.9,37.7,29.94,SSW,202,7.0,14.0,85,0.00,,,0.41,WUHU216DAVISVP2,2013-01-28 02:43:00,
2013-01-27 19:48:00,41.8,37.6,29.95,SSW,213,7.0,14.0,85,0.00,,,0.41,WUHU216DAVISVP2,2013-01-28 02:48:00,
2013-01-27 19:53:00,41.6,37.4,29.95,SSW,209,9.0,19.0,85,0.00,,,0.41,WUHU216DAVISVP2,2013-01-28 02:53:00,
2013-01-27 19:58:00,41.6,37.7,29.95,South,190,5.0,19.0,86,0.00,,,0.41,WUHU216DAVISVP2,2013-01-28 02:58:00,
2013-01-27 20:03:00,41.6,37.7,29.95,SSW,205,7.0,18.0,86,0.00,,,0.41,WUHU216DAVISVP2,2013-01-28 03:03:00,
2013-01-27 20:08:00,41.5,37.9,29.95,SSW,213,4.0,18.0,87,0.00,,,0.41,WUHU216DAVISVP2,2013-01-28 03:08:00,
2013-01-27 20:13:00,41.4,37.8,29.95,South,184,9.0,11.0,87,0.00,,,0.41,WUHU216DAVISVP2,2013-01-28 03:13:00,
2013-01-27 20:18:00,41.4,37.8,29.94,WSW,246,13.0,16.0,87,0.00,,,0.41,WUHU216DAVISVP2,2013-01-28 03:18:00,
2013-01-27 20:23:00,41.3,37.7,29.94,SSW,200,11.0,16.0,87,0.00,,,0.41,WUHU216DAVISVP2,2013-01-28 03:23:00,
2013-01-27 20:28:00,41.3,37.4,29.94,SW,234,5.0,15.0,86,0.00,,,0.41,WUHU216DAVISVP2,2013-01-28 03:28:00,
2013-01-27 20:33:00,41.1,37.2,29.94,WSW,238,7.0,15.0,86,0.00,,,0.41,WUHU216DAVISVP2,2013-01-28 03:33:00,
2013-01-27 20:38:00,41.1,37.2,29.94,SW,227,7.0,12.0,86,0.00,,,0.41,WUHU216DAVISVP2,2013-01-28 03:38:00,
2013-01-27 20:43:00,40.9,37.0,29.93,SSW,197,7.0,16.0,86,0.00,,,0.41,WUHU216DAVISVP2,2013-01-28 03:43:00,
2013-01-27 20:48:00,40.8,36.9,29.93,SSW,194,7.0,16.0,86,0.00,,,0.41,WUHU216DAVISVP2,2013-01-28 03:48:00,
2013-01-27 20:53:00,40.7,37.1,29.94,WSW,252,9.0,16.0,87,0.00,,,0.41,WUHU216DAVISVP2,2013-01-28 03:53:00,
2013-01-27 20:58:00,40.6,37.0,29.94,SW,229,6.0,13.0,87,0.00,,,0.41,WUHU216DAVISVP2,2013-01-28 03:58:00,
2013-01-27 21:03:00,40.4,36.8,29.94,SSW,196,7.0,11.0,87,0.00,,,0.41,WUHU216DAVISVP2,2013-01-28 04:03:00,
2013-01-27 21:08:00,40.4,36.8,29.94,SW,221,7.0,11.0,87,0.00,,,0.41,WUHU216DAVISVP2,2013-01-28 04:08:00,
2013-01-27 21:13:00,40.4,36.8,29.94,SSW,213,4.0,16.0,87,0.00,,,0.41,WUHU216DAVISVP2,2013-01-28 04:13:00,
2013-01-27 21:18:00,40.3,36.4,29.94,SW,234,12.0,16.0,86,0.00,,,0.41,WUHU216DAVISVP2,2013-01-28 04:18:00,
2013-01-27 21:23:00,40.2,36.3,29.94,SSW,198,8.0,12.0,86,0.00,,,0.41,WUHU216DAVISVP2,2013-01-28 04:23:00,
2013-01-27 21:28:00,40.1,36.2,29.94,SW,219,8.0,12.0,86,0.00,,,0.41,WUHU216DAVISVP2,2013-01-28 04:28:00,
2013-01-27 21:33:00,40.0,35.8,29.94,South,187,8.0,14.0,85,0.00,,,0.41,WUHU216DAVISVP2,2013-01-28 04:33:00,
2013-01-27 21:38:00,40.1,35.7,29.94,SW,222,14.0,15.0,84,0.00,,,0.41,WUHU216DAVISVP2,2013-01-28 04:38:00,
2013-01-27 21:43:00,40.1,35.3,29.93,SW,216,6.0,19.0,83,0.00,,,0.41,WUHU216DAVISVP2,2013-01-28 04:43:00,
2013-01-27 21:48:00,40.0,35.5,29.93,SW,225,5.0,20.0,84,0.00,,,0.41,WUHU216DAVISVP2,2013-01-28 04:48:00,
2013-01-27 21:53:00,39.8,35.6,29.93,SW,217,11.0,20.0,85,0.00,,,0.41,WUHU216DAVISVP2,2013-01-28 04:53:00,
2013-01-27 21:58:00,39.8,35.6,29.93,SW,223,6.0,16.0,85,0.00,,,0.41,WUHU216DAVISVP2,2013-01-28 04:58:00,
2013-01-27 22:00:00,39.7,35.5,29.93,SW,220,10.0,16.0,85,0.00,,,0.41,WUHU216DAVISVP2,2013-01-28 05:00:00,
2013-01-27 22:01:00,39.7,35.5,29.93,SSW,213,10.0,18.0,85,0.00,,,0.41,WUHU216DAVISVP2,2013-01-28 05:01:00,
2013-01-27 22:02:00,39.8,35.6,29.93,SSW,211,13.0,18.0,85,0.00,,,0.41,WUHU216DAVISVP2,2013-01-28 05:02:00,
2013-01-27 22:07:00,39.9,36.3,29.93,South,188,9.0,19.0,87,0.00,,,0.41,WUHU216DAVISVP2,2013-01-28 05:07:00,
2013-01-27 22:12:00,39.9,36.3,29.92,SW,226,12.0,19.0,87,0.00,,,0.41,WUHU216DAVISVP2,2013-01-28 05:12:00,
2013-01-27 22:17:00,40.0,36.4,29.92,SW,216,10.0,18.0,87,0.00,,,0.41,WUHU216DAVISVP2,2013-01-28 05:17:00,
2013-01-27 22:22:00,40.0,36.4,29.92,SW,236,6.0,18.0,87,0.00,,,0.41,WUHU216DAVISVP2,2013-01-28 05:22:00,
2013-01-27 22:27:00,39.8,35.9,29.92,SW,234,8.0,15.0,86,0.00,,,0.41,WUHU216DAVISVP2,2013-01-28 05:27:00,
2013-01-27 22:32:00,39.8,35.9,29.92,SSE,168,12.0,15.0,86,0.00,,,0.41,WUHU216DAVISVP2,2013-01-28 05:32:00,
2013-01-27 22:37:00,39.8,36.0,29.93,SW,231,6.0,14.0,86,0.00,,,0.41,WUHU216DAVISVP2,2013-01-28 05:37:00,
2013-01-27 22:42:00,39.7,36.1,29.93,WSW,254,4.0,14.0,87,0.00,,,0.41,WUHU216DAVISVP2,2013-01-28 05:42:00,
2013-01-27 22:47:00,39.9,36.3,29.94,WSW,240,5.0,15.0,87,0.00,,,0.41,WUHU216DAVISVP2,2013-01-28 05:47:00,
2013-01-27 22:52:00,39.8,36.8,29.93,SSW,201,11.0,15.0,89,0.00,,,0.41,WUHU216DAVISVP2,2013-01-28 05:52:00,
2013-01-27 22:57:00,39.3,36.6,29.93,SW,227,5.0,13.0,90,0.01,,,0.42,WUHU216DAVISVP2,2013-01-28 05:57:00,
2013-01-27 23:02:00,38.7,36.0,29.93,SW,234,14.0,18.0,90,0.02,,,0.43,WUHU216DAVISVP2,2013-01-28 06:02:00,
2013-01-27 23:07:00,37.9,35.5,29.94,WSW,243,7.0,18.0,91,0.03,,,0.44,WUHU216DAVISVP2,2013-01-28 06:07:00,
2013-01-27 23:12:00,37.2,35.0,29.94,SW,215,4.0,15.0,92,0.04,,,0.45,WUHU216DAVISVP2,2013-01-28 06:12:00,
2013-01-27 23:17:00,36.8,34.6,29.93,SW,227,4.0,14.0,92,0.05,,,0.46,WUHU216DAVISVP2,2013-01-28 06:17:00,
2013-01-27 23:22:00,36.0,33.9,29.93,SW,231,5.0,10.0,92,0.06,,,0.47,WUHU216DAVISVP2,2013-01-28 06:22:00,
2013-01-27 23:27:00,35.7,33.8,29.92,SW,228,3.0,8.0,93,0.06,,,0.47,WUHU216DAVISVP2,2013-01-28 06:27:00,
2013-01-27 23:32:00,35.8,34.2,29.92,SSW,213,6.0,8.0,94,0.06,,,0.47,WUHU216DAVISVP2,2013-01-28 06:32:00,
2013-01-27 23:37:00,36.1,34.8,29.93,SSE,158,3.0,8.0,95,0.07,,,0.48,WUHU216DAVISVP2,2013-01-28 06:37:00,
2013-01-27 23:42:00,36.3,35.0,29.93,SW,217,2.0,7.0,95,0.07,,,0.48,WUHU216DAVISVP2,2013-01-28 06:42:00,
2013-01-27 23:47:00,37.1,36.0,29.92,SSW,193,5.0,14.0,96,0.08,,,0.49,WUHU216DAVISVP2,2013-01-28 06:47:00,
2013-01-27 23:52:00,38.1,37.3,29.92,SW,236,7.0,17.0,97,0.09,,,0.50,WUHU216DAVISVP2,2013-01-28 06:52:00,
2013-01-27 23:57:00,38.5,37.2,29.92,SSW,196,5.0,17.0,95,0.08,,,0.50,WUHU216DAVISVP2,2013-01-28 06:57:00,